This is the latest recevied weather packets stored in our database for station/object N4NVD-13. If no packets are shown the sender has not sent any weather packets the latest 1 day(s).
| Time | Temp. | Humidity | Pressure | Rain* | Wind** | Luminosity | Snow |
|---|---|---|---|---|---|---|---|
| 1778036178 | 25° C | 93% | 1006.4 hPa | 0 mm | 3.58 m/s, 158° | 0 W/m² | - |
| 1778035874 | 25° C | 93% | 1006.5 hPa | 0 mm | 2.68 m/s, 158° | 0 W/m² | - |
| 1778035572 | 25° C | 92% | 1006.3 hPa | 0 mm | 1.79 m/s, 213° | 0 W/m² | - |
| 1778035267 | 25° C | 92% | 1006.3 hPa | 0 mm | 1.79 m/s, 154° | 0 W/m² | - |
| 1778034964 | 25° C | 92% | 1006.5 hPa | 0 mm | 2.24 m/s, 180° | 0 W/m² | - |
| 1778034661 | 25.56° C | 91% | 1006.1 hPa | 0 mm | 2.68 m/s, 162° | 0 W/m² | - |
| 1778034358 | 25.56° C | 91% | 1006.4 hPa | 0 mm | 0.89 m/s, 180° | 0 W/m² | - |
| 1778034055 | 25.56° C | 91% | 1006.1 hPa | 0 mm | 0.89 m/s, 180° | 0 W/m² | - |
| 1778033753 | 25.56° C | 91% | 1006.2 hPa | 0 mm | 2.24 m/s, 165° | 0 W/m² | - |
| 1778033450 | 25.56° C | 91% | 1006.4 hPa | 0 mm | 0.89 m/s, 194° | 0 W/m² | - |
| 1778033147 | 25.56° C | 91% | 1006.2 hPa | 0 mm | 2.24 m/s, 157° | 0 W/m² | - |
| 1778032844 | 25.56° C | 91% | 1006.2 hPa | 0 mm | 0.89 m/s, 221° | 0 W/m² | - |
| 1778032542 | 25.56° C | 91% | 1006.4 hPa | 0 mm | 1.34 m/s, 170° | 0 W/m² | - |
| 1778032238 | 25.56° C | 91% | 1006.1 hPa | 0 mm | 1.34 m/s, 166° | 0 W/m² | - |
| 1778031936 | 25.56° C | 91% | 1006.2 hPa | 0 mm | 0 m/s | 0 W/m² | - |
| 1778031631 | 25.56° C | 91% | 1006 hPa | 0 mm | 1.34 m/s, 194° | 0 W/m² | - |
| 1778031331 | 25.56° C | 91% | 1006 hPa | 0 mm | 2.24 m/s, 154° | 0 W/m² | - |
| 1778031027 | 25.56° C | 91% | 1006 hPa | 0 mm | 0 m/s | 0 W/m² | - |
| 1778030723 | 25.56° C | 90% | 1006 hPa | 0 mm | 0.45 m/s, 166° | 0 W/m² | - |
| 1778030420 | 25.56° C | 90% | 1005.8 hPa | 0 mm | 1.34 m/s, 210° | 0 W/m² | - |
| 1778030128 | 25.56° C | 90% | 1005.7 hPa | 0 mm | 0.89 m/s, 212° | 0 W/m² | - |
| 1778029814 | 26.11° C | 89% | 1005.7 hPa | 0 mm | 1.79 m/s, 154° | 0 W/m² | - |
| 1778029514 | 26.11° C | 89% | 1005.5 hPa | 0 mm | 2.24 m/s, 207° | 0 W/m² | - |
| 1778029209 | 26.11° C | 89% | 1005.5 hPa | 0 mm | 1.79 m/s, 161° | 4 W/m² | - |
| 1778028907 | 26.11° C | 88% | 1005.3 hPa | 0 mm | 1.34 m/s, 199° | 10 W/m² | - |
* Rain latest hour (hover to see other rain measurements)
** Current wind speed in m/s (hover to see current wind gust speed)